PICOSAT 1&2 (TETHERED)

Satellite information

Favourite Embed

Satellite Type and Status

PAYLOADIN ORBIT

Key statistics

Satellite PICOSAT 1&2 (TETHERED) at a glance.

Uptime

9452

Days in orbit

Revolutions

≈ 14.5

Per day

Orbit

SSO

Sun Synchronous Orbit

Inclination

100.2

Latest

Satellite identification and parameters

Extended collection of information and parameters for PICOSAT 1&2 (TETHERED).

Object identification

Identified? True

Debris? False

Object name: PICOSAT 1&2 (TETHERED)

International designator: 2000-004H

Object number (NORAD): 26080

Object ID (CCSDS): 26080

Country: UNITED STATES OF AMERICA (US)

Current information (Y/N): Y

RCS size: SMALL

Orbital parameters

Period: 99.49 minutes

Inclination: 100.2207 deg

SMA: 7112.347 km

Apoapsis: 755.226 km

Periapsis: 713.197 km

RAAN: 338.2076 deg

Eccentricy: 0.0029547

Argument of periapsis: 342.697 deg

Mean anomaly: 17.3207 deg

Mean motion: 14.47382753 rev/day

Mean motion (dot): 0.00001547 rev/day2

B* drag term: 0.00043659 1/REarth

Two-line elements (TLE)

Creation date: Dec. 12, 2025, 7:16 a.m.

Reference frame: TEME

Reference center: EARTH

Epoch: Dec. 11, 2025, 10:28 p.m. UTC

TLE line 0: 0 PICOSAT 1&2 (TETHERED)

TLE line 1: 1 26080U 00004H 25345.93636912 .00001547 00000-0 43659-3 0 9995

TLE line 2: 2 26080 100.2207 338.2076 0029547 342.6970 17.3207 14.47382753359828

Live tracking on map

Real-time ground track for satellite PICOSAT 1&2 (TETHERED).

In-orbit conjunctions

A list of the most updated potential collisions computed for object PICOSAT 1&2 (TETHERED).

Target Orbit TCA Probability of collision Miss distance Type
METEOR 2-5 DEB LEO 2025-09-23 12:25:24 0.000150962 669.0 (m) DEBRIS
CZ-6A DEB LEO 2025-06-06 20:38:04 0.0002777734 472.0 (m) DEBRIS
NOAA 16 DEB SSO 2025-05-23 01:27:10 0.0002612725 488.0 (m) DEBRIS
DMSP 5D-2 F13 DEB SSO 2025-03-14 02:29:23 0.0001641951 236.0 (m) DEBRIS
NOAA 16 DEB SSO 2025-02-15 13:47:07 0.0002719411 198.0 (m) DEBRIS

Associated space launch

The JAWSAT (Joint Air Force Academy / Weber State University Satellite) project was developed by students working alongside aerospace professionals. Initially designed with a pulsed-plasma thruster to train Air Force Academy cadets (see JAWSAT), the mission has since evolved to include the efforts of several universities, local aerospace companies, the Air Force Academy, the Air Force Research Laboratory, and NASA. Utilizing breakthrough technologies, JAWSAT deployed four satellites when it reached orbit. The onboard imaging system recorded the deployment of each payload with its six digital cameras. The first free-flying Academy satellite, FalconSat-1 carried the CHAWS (Charging Hazards and Wake Studies) experiment developed by the Physics Department at the Academy.

PICOSAT 1&2 (TETHERED) was lifted into orbit during the mission ‘Minotaur I | JAWSAT & FalconSat 1’, on board a Minotaur I space rocket.

The launch took place on Jan. 27, 2000, 3:03 a.m. from Space Launch Complex 8.

For more information about the launch, click the button.

Launch to space Minotaur I | JAWSAT & FalconSat 1
Minotaur I | JAWSAT & FalconSat 1

Agency: N/A

Status: Launch Successful

Launch date: Jan. 27, 2000, 3:03 a.m. UTC

Rocket: Minotaur I

Launch pad: Space Launch Complex 8

Location: Vandenberg SFB, CA, USA

...

Latest news about this satellite

There are no fresh news available about this satellite. Check back as we update our databases every day.


Newsletter sign-up

Weekly statistics, charts and insights to help you stay on top of the space industry.